This is the latest recevied weather packets stored in our database for station/object EA3CTN-13. If no packets are shown the sender has not sent any weather packets the latest 1 day(s).
| Time | Temp. | Humidity | Pressure | Rain* | Wind** | Luminosity | Snow |
|---|---|---|---|---|---|---|---|
| 1778082081 | 21.67° C | 37% | 1011.2 hPa | - | - | - | - |
| 1778081601 | 21.67° C | 38% | 1011.3 hPa | - | - | - | - |
| 1778080161 | 21.11° C | 41% | 1011.4 hPa | - | - | - | - |
| 1778079681 | 21.11° C | 40% | 1011.4 hPa | - | - | - | - |
| 1778078241 | 21.11° C | 41% | 1011.5 hPa | - | - | - | - |
| 1778077281 | 21.11° C | 41% | 1011.6 hPa | - | - | - | - |
| 1778075841 | 20.56° C | 38% | 1011.7 hPa | - | - | - | - |
| 1778065761 | 20° C | 37% | 1012.7 hPa | - | - | - | - |
| 1778065281 | 20° C | 37% | 1012.6 hPa | - | - | - | - |
| 1778064801 | 20° C | 37% | 1012.7 hPa | - | - | - | - |
| 1778063842 | 20° C | 37% | 1012.8 hPa | - | - | - | - |
| 1778063360 | 20° C | 36% | 1013 hPa | - | - | - | - |
| 1778060481 | 19.44° C | 37% | 1013.2 hPa | - | - | - | - |
| 1778060001 | 19.44° C | 38% | 1013.3 hPa | - | - | - | - |
| 1778059041 | 18.89° C | 39% | 1013.2 hPa | - | - | - | - |
| 1778055680 | 18.33° C | 42% | 1013 hPa | - | - | - | - |
| 1778017760 | 18.89° C | 46% | 1012.1 hPa | - | - | - | - |
| 1778017280 | 18.89° C | 46% | 1012.2 hPa | - | - | - | - |
| 1778015840 | 18.89° C | 45% | 1011.9 hPa | - | - | - | - |
| 1778014880 | 19.44° C | 44% | 1011.6 hPa | - | - | - | - |
| 1778014400 | 19.44° C | 44% | 1011.6 hPa | - | - | - | - |
| 1778013920 | 19.44° C | 44% | 1011.6 hPa | - | - | - | - |
* Rain since midnight (hover to see other rain measurements)
** Current wind speed in m/s (hover to see current wind gust speed)